Location: Cottbus
(51.7000°N, 14.3000°E)
Time: 09:40:41
(UTC+02:00)

STARLINK-2521 - Pass Details

Date: 01 August 2021
Orbit: 546 x 548 km, 53.1° (Epoch: 25 September)

Event Time Altitude Azimuth Distance (km) Brightness Sun altitude
Rises 21:27:30 0° 283° (WNW) 2,724 8.6 -5.5°
Reaches altitude 10° 21:30:45 10° 257° (WSW) 1,825 6.9 -5.9°
Maximum altitude 21:32:44 13° 228° (SW) 1,622 6.1 -6.1°
Drops below altitude 10° 21:34:43 10° 199° (SSW) 1,818 6.1 -6.3°
Enters shadow 21:37:47 - 173° (S) 2,650 6.7 -6.7°
